| time (UTC) | temp F | wind direction | speed MPH | gust MPH | rain 1hr in | rain 24hr in | rain mn in | humidity % | barometer mb |
| 20260507083131 | 50 | 215 | 4.0 | 7.0 | 0.00 | 0.01 | 0.01 | 79 | 1012.2 |
| 20260507082631 | 50 | 271 | 5.0 | 8.0 | 0.00 | 0.01 | 0.01 | 80 | 1012.1 |
| 20260507082543 | 50 | 288 | 3.0 | 7.0 | 0.00 | 0.01 | 0.01 | 80 | 1012.1 |
| 20260507082539 | 50 | 255 | 4.0 | 8.0 | 0.00 | 0.01 | 0.01 | 80 | 1012.1 |
| 20260507081132 | 51 | 198 | 4.0 | 7.0 | 0.00 | 0.01 | 0.01 | 79 | 1012.0 |
| 20260507080957 | 51 | 179 | 5.0 | 8.0 | 0.00 | 0.01 | 0.01 | 81 | 1012.0 |
| 20260507080130 | 51 | 192 | 4.0 | 8.0 | 0.00 | 0.01 | 0.01 | 81 | 1012.1 |
| 20260507075633 | 50 | 198 | 3.0 | 7.0 | 0.00 | 0.01 | 0.01 | 82 | 1011.9 |
| 20260507075436 | 49 | 235 | 2.0 | 5.0 | 0.00 | 0.01 | 0.01 | 83 | 1011.9 |
| 20260507074630 | 49 | 241 | 2.0 | 5.0 | 0.00 | 0.01 | 0.01 | 83 | 1011.9 |
| 20260507074130 | 49 | 207 | 2.0 | 5.0 | 0.00 | 0.01 | 0.01 | 84 | 1011.8 |
| 20260507073623 | 49 | 226 | 3.0 | 6.0 | 0.00 | 0.01 | 0.01 | 83 | 1011.8 |
| 20260507073119 | 49 | 204 | 4.0 | 7.0 | 0.00 | 0.01 | 0.01 | 84 | 1011.8 |
| 20260507072614 | 48 | 294 | 5.0 | 7.0 | 0.00 | 0.01 | 0.01 | 84 | 1011.8 |
| 20260507072416 | 48 | 240 | 4.0 | 7.0 | 0.00 | 0.01 | 0.01 | 84 | 1011.7 |
| 20260507071611 | 48 | 229 | 4.0 | 7.0 | 0.00 | 0.01 | 0.01 | 85 | 1011.7 |
| 20260507071111 | 48 | 236 | 3.0 | 7.0 | 0.00 | 0.01 | 0.01 | 85 | 1011.7 |
| 20260507070609 | 48 | 236 | 4.0 | 8.0 | 0.00 | 0.01 | 0.01 | 85 | 1011.7 |
| 20260507070111 | 48 | 223 | 4.0 | 8.0 | 0.00 | 0.01 | 0.01 | 84 | 1011.7 |
| 20260507065609 | 48 | 257 | 3.0 | 7.0 | 0.00 | 0.01 | 0.01 | 85 | 1011.6 |
| 20260507065108 | 48 | 243 | 3.0 | 6.0 | 0.00 | 0.01 | 0.01 | 85 | 1011.6 |
| 20260507064605 | 48 | 243 | 4.0 | 6.0 | 0.00 | 0.01 | 0.01 | 85 | 1011.5 |
| 20260507064214 | 47 | 280 | 4.0 | 8.0 | 0.00 | 0.01 | 0.01 | 85 | 1011.4 |
| 20260507064149 | 47 | 294 | 5.0 | 8.0 | 0.00 | 0.01 | 0.01 | 85 | 1011.6 |
| 20260507063102 | 48 | 269 | 2.0 | 6.0 | 0.00 | 0.01 | 0.01 | 86 | 1011.5 |
| 20260507062601 | 47 | 240 | 3.0 | 6.0 | 0.00 | 0.01 | 0.01 | 86 | 1011.4 |
| 20260507062409 | 47 | 234 | 3.0 | 7.0 | 0.00 | 0.01 | 0.01 | 86 | 1011.4 |
| 20260507061600 | 47 | 248 | 4.0 | 7.0 | 0.00 | 0.01 | 0.01 | 86 | 1011.3 |
| 20260507061102 | 47 | 294 | 3.0 | 7.0 | 0.00 | 0.01 | 0.01 | 86 | 1011.2 |
| 20260507060603 | 47 | 245 | 3.0 | 6.0 | 0.00 | 0.01 | 0.01 | 86 | 1011.2 |
| 20260507060416 | 47 | 250 | 3.0 | 6.0 | 0.00 | 0.01 | 0.01 | 87 | 1011.1 |
| 20260507055604 | 47 | 254 | 3.0 | 6.0 | 0.00 | 0.01 | 0.01 | 86 | 1011.0 |
| 20260507055404 | 47 | 278 | 2.0 | 6.0 | 0.00 | 0.01 | 0.01 | 87 | 1011.0 |
| 20260507054550 | 47 | 287 | 2.0 | 8.0 | 0.00 | 0.01 | 0.01 | 87 | 1011.0 |
| 20260507054041 | 47 | 278 | 3.0 | 8.0 | 0.00 | 0.01 | 0.01 | 87 | 1010.9 |
| 20260507053536 | 47 | 260 | 4.0 | 8.0 | 0.00 | 0.01 | 0.01 | 87 | 1010.9 |
| 20260507053035 | 47 | 270 | 4.0 | 8.0 | 0.00 | 0.01 | 0.01 | 87 | 1010.9 |
| 20260507052535 | 47 | 298 | 3.0 | 7.0 | 0.00 | 0.01 | 0.01 | 87 | 1010.8 |
| 20260507052035 | 47 | 291 | 2.0 | 6.0 | 0.00 | 0.01 | 0.01 | 87 | 1010.7 |
| 20260507051536 | 47 | 275 | 3.0 | 5.0 | 0.00 | 0.01 | 0.01 | 87 | 1010.7 |
| 20260507051036 | 47 | 242 | 3.0 | 6.0 | 0.00 | 0.01 | 0.01 | 87 | 1010.6 |
| 20260507050536 | 47 | 271 | 4.0 | 6.0 | 0.00 | 0.01 | 0.01 | 87 | 1010.6 |
| 20260507050037 | 47 | 229 | 2.0 | 6.0 | 0.00 | 0.01 | 0.01 | 87 | 1010.5 |
| 20260507045538 | 47 | 229 | 1.0 | 5.0 | 0.00 | 0.01 | 0.01 | 87 | 1010.4 |
| 20260507045034 | 47 | 237 | 1.0 | 4.0 | 0.00 | 0.01 | 0.01 | 88 | 1010.4 |
| 20260507044533 | 47 | 242 | 1.0 | 4.0 | 0.00 | 0.01 | 0.01 | 87 | 1010.3 |
| 20260507044036 | 47 | 242 | 2.0 | 4.0 | 0.00 | 0.01 | 0.01 | 87 | 1010.2 |
| 20260507043827 | 47 | 242 | 2.0 | 5.0 | 0.00 | 0.01 | 0.01 | 87 | 1010.2 |
| 20260507043032 | 47 | 237 | 1.0 | 5.0 | 0.00 | 0.01 | 0.01 | 87 | 1010.0 |
| 20260507042531 | 47 | 237 | 2.0 | 5.0 | 0.00 | 0.01 | 0.01 | 87 | 1010.0 |
| 20260507042030 | 47 | 239 | 2.0 | 5.0 | 0.00 | 0.01 | 0.01 | 87 | 1009.9 |
| 20260507041529 | 47 | 239 | 2.0 | 5.0 | 0.00 | 0.01 | 0.01 | 87 | 1009.8 |
| 20260507041030 | 47 | 258 | 2.0 | 5.0 | 0.00 | 0.01 | 0.01 | 87 | 1009.8 |
| 20260507040529 | 47 | 277 | 3.0 | 6.0 | 0.00 | 0.01 | 0.01 | 87 | 1009.8 |
| 20260507040018 | 47 | 266 | 4.0 | 8.0 | 0.00 | 0.01 | 0.01 | 87 | 1009.7 |
| 20260507035517 | 47 | 261 | 4.0 | 8.0 | 0.00 | 0.01 | 0.01 | 87 | 1009.8 |
| 20260507035326 | 47 | 276 | 3.0 | 6.0 | 0.00 | 0.01 | 0.01 | 87 | 1009.8 |
| 20260507034503 | 47 | 252 | 4.0 | 6.0 | 0.00 | 0.01 | 0.01 | 87 | 1009.8 |
| 20260507034003 | 47 | 287 | 4.0 | 7.0 | 0.00 | 0.01 | 0.01 | 87 | 1009.8 |
| 20260507033506 | 47 | 289 | 4.0 | 7.0 | 0.00 | 0.01 | 0.01 | 87 | 1009.7 |
| 20260507033004 | 47 | 258 | 4.0 | 6.0 | 0.01 | 0.01 | 0.01 | 87 | 1009.7 |
| 20260507032502 | 47 | 282 | 3.0 | 6.0 | 0.01 | 0.01 | 0.01 | 87 | 1009.7 |
| 20260507032003 | 47 | 278 | 3.0 | 6.0 | 0.01 | 0.01 | 0.01 | 87 | 1009.7 |
| 20260507031502 | 47 | 280 | 2.0 | 6.0 | 0.01 | 0.01 | 0.01 | 87 | 1009.6 |
| 20260507031001 | 47 | 273 | 3.0 | 5.0 | 0.01 | 0.01 | 0.01 | 87 | 1009.5 |
| 20260507030502 | 47 | 277 | 3.0 | 5.0 | 0.01 | 0.01 | 0.01 | 87 | 1009.5 |
| 20260507030001 | 47 | 275 | 2.0 | 6.0 | 0.01 | 0.01 | 0.01 | 87 | 1009.5 |
| 20260507025501 | 47 | 310 | 2.0 | 6.0 | 0.01 | 0.01 | 0.01 | 87 | 1009.5 |
| 20260507025001 | 47 | 277 | 3.0 | 6.0 | 0.01 | 0.01 | 0.01 | 87 | 1009.6 |
| 20260507024500 | 47 | 303 | 3.0 | 7.0 | 0.01 | 0.01 | 0.01 | 86 | 1009.5 |
| 20260507024001 | 47 | 287 | 3.0 | 7.0 | 0.01 | 0.01 | 0.01 | 86 | 1009.6 |
| 20260507023828 | 47 | 248 | 3.0 | 7.0 | 0.01 | 0.01 | 0.01 | 86 | 1009.6 |
| 20260507023001 | 47 | 283 | 3.0 | 7.0 | 0.00 | 0.00 | 0.00 | 86 | 1009.5 |
| 20260507022502 | 47 | 289 | 3.0 | 7.0 | 0.00 | 0.00 | 0.00 | 86 | 1009.4 |
| 20260507022300 | 48 | 239 | 3.0 | 7.0 | 0.00 | 0.00 | 0.00 | 85 | 1009.4 |
| 20260507021501 | 48 | 302 | 3.0 | 8.0 | 0.00 | 0.00 | 0.00 | 85 | 1009.4 |
| 20260507021001 | 48 | 247 | 4.0 | 8.0 | 0.00 | 0.00 | 0.00 | 85 | 1009.4 |
| 20260507020502 | 48 | 287 | 4.0 | 7.0 | 0.00 | 0.00 | 0.00 | 85 | 1009.3 |
| 20260507020002 | 48 | 293 | 5.0 | 8.0 | 0.00 | 0.00 | 0.00 | 84 | 1009.3 |
| 20260507015502 | 48 | 298 | 5.0 | 8.0 | 0.00 | 0.00 | 0.00 | 84 | 1009.2 |
| 20260507014958 | 48 | 289 | 4.0 | 8.0 | 0.00 | 0.00 | 0.00 | 84 | 1009.1 |
| 20260507014501 | 48 | 275 | 3.0 | 8.0 | 0.00 | 0.00 | 0.00 | 84 | 1009.1 |
| 20260507014000 | 48 | 269 | 5.0 | 8.0 | 0.00 | 0.00 | 0.00 | 84 | 1009.1 |
| 20260507013459 | 48 | 250 | 4.0 | 7.0 | 0.00 | 0.00 | 0.00 | 84 | 1009.0 |
| 20260507013002 | 48 | 259 | 4.0 | 9.0 | 0.00 | 0.00 | 0.00 | 84 | 1009.0 |
| 20260507012457 | 48 | 297 | 4.0 | 9.0 | 0.00 | 0.00 | 0.00 | 84 | 1009.0 |
| 20260507011957 | 48 | 274 | 3.0 | 6.0 | 0.00 | 0.00 | 0.00 | 84 | 1009.0 |
| 20260507011459 | 48 | 296 | 3.0 | 7.0 | 0.00 | 0.00 | 0.00 | 84 | 1008.9 |
| 20260507010954 | 48 | 290 | 4.0 | 7.0 | 0.00 | 0.00 | 0.00 | 84 | 1008.9 |
| 20260507010803 | 48 | 255 | 3.0 | 6.0 | 0.00 | 0.00 | 0.00 | 84 | 1008.8 |
| 20260507005955 | 48 | 285 | 3.0 | 6.0 | 0.00 | 0.00 | 0.00 | 84 | 1008.8 |
| 20260507005452 | 48 | 257 | 3.0 | 6.0 | 0.00 | 0.00 | 0.00 | 84 | 1008.8 |
| 20260507004947 | 48 | 279 | 2.0 | 6.0 | 0.00 | 0.00 | 0.00 | 84 | 1008.8 |
| 20260507004741 | 48 | 284 | 2.0 | 6.0 | 0.00 | 0.00 | 0.00 | 84 | 1008.7 |
| 20260507003942 | 48 | 294 | 2.0 | 7.0 | 0.00 | 0.00 | 0.00 | 84 | 1008.6 |
| 20260507003438 | 48 | 258 | 2.0 | 7.0 | 0.00 | 0.00 | 0.00 | 84 | 1008.7 |
| 20260507002939 | 48 | 274 | 2.0 | 5.0 | 0.00 | 0.00 | 0.00 | 85 | 1008.7 |
| 20260507002435 | 48 | 274 | 3.0 | 6.0 | 0.00 | 0.00 | 0.00 | 85 | 1008.6 |
| 20260507001937 | 48 | 292 | 3.0 | 7.0 | 0.00 | 0.00 | 0.00 | 85 | 1008.6 |
| 20260507001437 | 48 | 336 | 3.0 | 7.0 | 0.00 | 0.00 | 0.00 | 85 | 1008.6 |
| 20260507000934 | 48 | 300 | 3.0 | 7.0 | 0.00 | 0.00 | 0.00 | 85 | 1008.6 |
| 20260507000435 | 48 | 294 | 4.0 | 7.0 | 0.00 | 0.00 | 0.00 | 85 | 1008.5 |
| 20260506235934 | 48 | 309 | 4.0 | 8.0 | 0.00 | 0.00 | 0.00 | 85 | 1008.6 |
| 20260506235435 | 48 | 302 | 4.0 | 8.0 | 0.00 | 0.00 | 0.00 | 85 | 1008.5 |
| 20260506234935 | 48 | 313 | 4.0 | 8.0 | 0.00 | 0.00 | 0.00 | 85 | 1008.5 |
| 20260506234434 | 49 | 5 | 4.0 | 8.0 | 0.00 | 0.00 | 0.00 | 85 | 1008.5 |
| 20260506233934 | 48 | 316 | 4.0 | 8.0 | 0.00 | 0.00 | 0.00 | 85 | 1008.5 |
| 20260506233734 | 49 | 309 | 3.0 | 7.0 | 0.00 | 0.00 | 0.00 | 85 | 1008.6 |
| 20260506232933 | 49 | 257 | 3.0 | 8.0 | 0.00 | 0.00 | 0.00 | 85 | 1008.5 |
| 20260506232433 | 49 | 294 | 3.0 | 8.0 | 0.00 | 0.00 | 0.00 | 85 | 1008.5 |
| 20260506232234 | 49 | 254 | 3.0 | 7.0 | 0.00 | 0.00 | 0.00 | 85 | 1008.4 |
| 20260506231429 | 49 | 296 | 3.0 | 7.0 | 0.00 | 0.00 | 0.00 | 84 | 1008.4 |
| 20260506230929 | 49 | 286 | 4.0 | 8.0 | 0.00 | 0.00 | 0.00 | 84 | 1008.4 |
| 20260506230437 | 49 | 290 | 4.0 | 8.0 | 0.00 | 0.00 | 0.00 | 84 | 1008.3 |
| 20260506225930 | 49 | 264 | 3.0 | 6.0 | 0.00 | 0.00 | 0.00 | 84 | 1008.3 |
| 20260506225430 | 49 | 296 | 2.0 | 6.0 | 0.00 | 0.01 | 0.00 | 84 | 1008.3 |
| 20260506224930 | 49 | 259 | 3.0 | 8.0 | 0.00 | 0.01 | 0.00 | 84 | 1008.3 |
| 20260506224429 | 49 | 270 | 4.0 | 8.0 | 0.00 | 0.01 | 0.00 | 84 | 1008.2 |
| 20260506223930 | 49 | 264 | 3.0 | 8.0 | 0.00 | 0.01 | 0.00 | 84 | 1008.2 |
| 20260506223429 | 49 | 267 | 4.0 | 8.0 | 0.00 | 0.01 | 0.00 | 84 | 1008.1 |
| 20260506222929 | 49 | 319 | 5.0 | 8.0 | 0.00 | 0.01 | 0.00 | 84 | 1008.1 |
| 20260506222430 | 49 | 284 | 5.0 | 8.0 | 0.00 | 0.01 | 0.00 | 84 | 1008.1 |
| 20260506221931 | 49 | 259 | 6.0 | 9.0 | 0.00 | 0.01 | 0.00 | 84 | 1008.1 |
| 20260506221430 | 49 | 250 | 6.0 | 9.0 | 0.00 | 0.01 | 0.00 | 84 | 1008.0 |
| 20260506221235 | 49 | 267 | 6.0 | 9.0 | 0.00 | 0.01 | 0.00 | 84 | 1007.9 |
| 20260506220429 | 49 | 259 | 5.0 | 8.0 | 0.00 | 0.01 | 0.00 | 84 | 1007.9 |
| 20260506215931 | 49 | 279 | 4.0 | 7.0 | 0.00 | 0.01 | 0.01 | 84 | 1007.9 |
| 20260506215429 | 49 | 295 | 4.0 | 7.0 | 0.00 | 0.01 | 0.01 | 84 | 1007.9 |
| 20260506214931 | 49 | 260 | 3.0 | 5.0 | 0.00 | 0.01 | 0.01 | 84 | 1007.9 |
| 20260506214429 | 50 | 235 | 3.0 | 5.0 | 0.00 | 0.01 | 0.01 | 84 | 1007.8 |
| 20260506213930 | 50 | 231 | 3.0 | 5.0 | 0.00 | 0.01 | 0.01 | 84 | 1007.8 |
| 20260506213428 | 50 | 242 | 2.0 | 5.0 | 0.00 | 0.01 | 0.01 | 84 | 1007.7 |
| 20260506212929 | 50 | 248 | 2.0 | 5.0 | 0.00 | 0.01 | 0.01 | 83 | 1007.6 |
| 20260506212429 | 50 | 248 | 1.0 | 5.0 | 0.00 | 0.01 | 0.01 | 83 | 1007.6 |
| 20260506211929 | 50 | 248 | 2.0 | 5.0 | 0.00 | 0.01 | 0.01 | 83 | 1007.6 |
| 20260506211431 | 50 | 288 | 2.0 | 5.0 | 0.00 | 0.01 | 0.01 | 83 | 1007.5 |
| 20260506210930 | 50 | 290 | 2.0 | 5.0 | 0.00 | 0.01 | 0.01 | 83 | 1007.5 |
| 20260506210430 | 50 | 303 | 2.0 | 7.0 | 0.00 | 0.01 | 0.01 | 83 | 1007.4 |
| 20260506210239 | 50 | 329 | 2.0 | 7.0 | 0.00 | 0.01 | 0.01 | 83 | 1007.3 |
| 20260506205431 | 50 | 312 | 2.0 | 6.0 | 0.00 | 0.01 | 0.01 | 83 | 1007.4 |
| 20260506204929 | 50 | 248 | 2.0 | 5.0 | 0.00 | 0.01 | 0.01 | 83 | 1007.3 |
| 20260506204429 | 50 | 255 | 3.0 | 5.0 | 0.00 | 0.01 | 0.01 | 83 | 1007.3 |
| 20260506204229 | 50 | 241 | 3.0 | 7.0 | 0.00 | 0.01 | 0.01 | 83 | 1007.3 |
| 20260506203431 | 50 | 261 | 4.0 | 7.0 | 0.00 | 0.01 | 0.01 | 83 | 1007.2 |
| 20260506203235 | 50 | 255 | 3.0 | 9.0 | 0.00 | 0.01 | 0.01 | 82 | 1007.2 |
| 20260506202740 | 50 | 261 | 4.0 | 9.0 | 0.00 | 0.01 | 0.01 | 82 | 1007.3 |
| 20260506201929 | 50 | 244 | 4.0 | 8.0 | 0.00 | 0.01 | 0.01 | 82 | 1007.1 |
| 20260506201428 | 50 | 269 | 4.0 | 7.0 | 0.00 | 0.01 | 0.01 | 82 | 1007.1 |
| 20260506200930 | 51 | 244 | 4.0 | 7.0 | 0.00 | 0.01 | 0.01 | 82 | 1007.0 |
| 20260506200732 | 51 | 258 | 3.0 | 6.0 | 0.00 | 0.01 | 0.01 | 82 | 1006.9 |
| 20260506195930 | 51 | 273 | 3.0 | 7.0 | 0.00 | 0.01 | 0.01 | 82 | 1006.9 |
| 20260506195432 | 51 | 271 | 3.0 | 7.0 | 0.00 | 0.01 | 0.01 | 82 | 1006.8 |
| 20260506194931 | 51 | 248 | 3.0 | 7.0 | 0.00 | 0.01 | 0.01 | 82 | 1006.8 |
| 20260506194735 | 51 | 238 | 3.0 | 6.0 | 0.00 | 0.01 | 0.01 | 82 | 1006.8 |
| 20260506194224 | 51 | 288 | 3.0 | 6.0 | 0.00 | 0.01 | 0.01 | 83 | 1006.8 |
| 20260506193430 | 51 | 315 | 3.0 | 6.0 | 0.00 | 0.01 | 0.01 | 82 | 1006.8 |
| 20260506193230 | 51 | 225 | 3.0 | 6.0 | 0.00 | 0.01 | 0.01 | 82 | 1006.7 |
| 20260506192429 | 51 | 279 | 4.0 | 7.0 | 0.00 | 0.01 | 0.01 | 82 | 1006.6 |
| 20260506191929 | 51 | 273 | 3.0 | 7.0 | 0.00 | 0.01 | 0.01 | 82 | 1006.6 |
| 20260506191431 | 51 | 266 | 3.0 | 7.0 | 0.00 | 0.01 | 0.01 | 82 | 1006.5 |
| 20260506191247 | 51 | 264 | 4.0 | 7.0 | 0.00 | 0.02 | 0.01 | 82 | 1006.4 |
| 20260506190426 | 52 | 263 | 4.0 | 9.0 | 0.00 | 0.02 | 0.01 | 82 | 1006.4 |
| 20260506190114 | 52 | 289 | 4.0 | 8.0 | 0.00 | 0.02 | 0.01 | 82 | 1006.2 |
| 20260506190011 | 52 | 285 | 4.0 | 9.0 | 0.00 | 0.02 | 0.01 | 82 | 1006.2 |
| 20260506184904 | 52 | 279 | 3.0 | 8.0 | 0.00 | 0.02 | 0.01 | 82 | 1006.0 |
| 20260506184402 | 52 | 300 | 3.0 | 8.0 | 0.00 | 0.02 | 0.01 | 81 | 1005.9 |
| 20260506183901 | 52 | 256 | 4.0 | 8.0 | 0.00 | 0.02 | 0.01 | 81 | 1005.9 |
| 20260506183402 | 52 | 291 | 5.0 | 9.0 | 0.00 | 0.02 | 0.01 | 82 | 1005.9 |
| 20260506182903 | 52 | 340 | 5.0 | 9.0 | 0.00 | 0.02 | 0.01 | 82 | 1005.8 |
| 20260506182402 | 52 | 297 | 5.0 | 9.0 | 0.00 | 0.02 | 0.01 | 81 | 1005.7 |
| 20260506181910 | 53 | 294 | 4.0 | 9.0 | 0.00 | 0.02 | 0.01 | 81 | 1005.7 |
| 20260506181401 | 53 | 268 | 3.0 | 7.0 | 0.00 | 0.02 | 0.01 | 82 | 1005.6 |
| 20260506180903 | 53 | 271 | 4.0 | 9.0 | 0.00 | 0.02 | 0.01 | 81 | 1005.6 |
| 20260506180402 | 53 | 289 | 3.0 | 9.0 | 0.00 | 0.02 | 0.01 | 81 | 1005.4 |
| 20260506180203 | 53 | 275 | 3.0 | 6.0 | 0.00 | 0.02 | 0.01 | 82 | 1005.5 |
| 20260506175656 | 53 | 284 | 3.0 | 8.0 | 0.00 | 0.02 | 0.01 | 82 | 1005.4 |
| 20260506174903 | 53 | 302 | 4.0 | 10.0 | 0.00 | 0.03 | 0.01 | 81 | 1005.4 |
| 20260506174403 | 53 | 282 | 5.0 | 10.0 | 0.00 | 0.03 | 0.01 | 81 | 1005.4 |
| 20260506173902 | 53 | 255 | 5.0 | 11.0 | 0.00 | 0.03 | 0.01 | 81 | 1005.3 |
| 20260506173402 | 53 | 309 | 6.0 | 11.0 | 0.00 | 0.03 | 0.01 | 80 | 1005.3 |
| 20260506172902 | 53 | 339 | 5.0 | 9.0 | 0.00 | 0.03 | 0.01 | 80 | 1005.2 |
| 20260506172708 | 54 | 309 | 4.0 | 8.0 | 0.00 | 0.03 | 0.01 | 80 | 1005.2 |
| 20260506171901 | 54 | 329 | 6.0 | 13.0 | 0.00 | 0.03 | 0.01 | 80 | 1005.2 |
| 20260506171401 | 54 | 317 | 6.0 | 13.0 | 0.00 | 0.03 | 0.01 | 79 | 1005.1 |
| 20260506171034 | 54 | 299 | 5.0 | 11.0 | 0.00 | 0.03 | 0.01 | 80 | 1005.1 |
| 20260506171001 | 54 | 332 | 5.0 | 11.0 | 0.00 | 0.03 | 0.01 | 80 | 1005.0 |
| 20260506170323 | 55 | 299 | 3.0 | 9.0 | 0.00 | 0.03 | 0.01 | 80 | 1005.0 |
| 20260506165953 | 54 | 290 | 4.0 | 10.0 | 0.00 | 0.03 | 0.01 | 80 | 1004.9 |
| 20260506164901 | 55 | 319 | 3.0 | 9.0 | 0.00 | 0.03 | 0.01 | 80 | 1004.9 |
| 20260506164705 | 55 | 250 | 4.0 | 8.0 | 0.00 | 0.03 | 0.01 | 80 | 1004.9 |
| 20260506163902 | 54 | 238 | 5.0 | 8.0 | 0.00 | 0.03 | 0.01 | 80 | 1004.9 |
| 20260506163400 | 54 | 297 | 5.0 | 12.0 | 0.00 | 0.03 | 0.01 | 80 | 1004.9 |
| 20260506162902 | 55 | 324 | 6.0 | 13.0 | 0.00 | 0.03 | 0.01 | 79 | 1004.8 |
| 20260506162402 | 55 | 348 | 6.0 | 13.0 | 0.00 | 0.03 | 0.01 | 79 | 1004.8 |
| 20260506161902 | 55 | 305 | 4.0 | 9.0 | 0.00 | 0.03 | 0.01 | 80 | 1004.8 |
| 20260506161403 | 55 | 289 | 5.0 | 12.0 | 0.00 | 0.03 | 0.01 | 79 | 1004.8 |
| 20260506161248 | 55 | 258 | 7.0 | 15.0 | 0.00 | 0.03 | 0.01 | 79 | 1004.7 |
| 20260506160751 | 55 | 280 | 7.0 | 15.0 | 0.00 | 0.03 | 0.01 | 79 | 1004.8 |
| 20260506155904 | 55 | 311 | 6.0 | 12.0 | 0.00 | 0.03 | 0.01 | 79 | 1004.7 |
| 20260506155402 | 56 | 296 | 5.0 | 12.0 | 0.00 | 0.03 | 0.01 | 79 | 1004.7 |
| 20260506154902 | 56 | 282 | 6.0 | 11.0 | 0.00 | 0.03 | 0.01 | 79 | 1004.6 |
| 20260506154707 | 56 | 346 | 8.0 | 15.0 | 0.00 | 0.03 | 0.01 | 78 | 1004.7 |
| 20260506153901 | 56 | 278 | 8.0 | 15.0 | 0.00 | 0.03 | 0.01 | 78 | 1004.7 |
| 20260506153403 | 56 | 323 | 7.0 | 13.0 | 0.00 | 0.03 | 0.01 | 79 | 1004.7 |
| 20260506153206 | 56 | 287 | 7.0 | 13.0 | 0.00 | 0.03 | 0.01 | 80 | 1004.7 |
| 20260506152402 | 56 | 274 | 8.0 | 13.0 | 0.00 | 0.03 | 0.01 | 79 | 1004.7 |
| 20260506151901 | 56 | 253 | 8.0 | 13.0 | 0.00 | 0.03 | 0.01 | 80 | 1004.7 |
| 20260506151400 | 55 | 244 | 8.0 | 13.0 | 0.00 | 0.03 | 0.01 | 80 | 1004.7 |
| 20260506150901 | 55 | 262 | 8.0 | 14.0 | 0.00 | 0.03 | 0.01 | 81 | 1004.6 |
| 20260506150401 | 56 | 291 | 7.0 | 14.0 | 0.00 | 0.03 | 0.01 | 81 | 1004.6 |
| 20260506150204 | 56 | 279 | 7.0 | 15.0 | 0.00 | 0.03 | 0.01 | 82 | 1004.6 |
| 20260506145707 | 56 | 262 | 7.0 | 15.0 | 0.00 | 0.03 | 0.01 | 82 | 1004.6 |
| 20260506145021 | 56 | 273 | 8.0 | 13.0 | 0.00 | 0.04 | 0.01 | 80 | 1004.5 |
| 20260506144952 | 56 | 276 | 7.0 | 13.0 | 0.00 | 0.03 | 0.01 | 81 | 1004.5 |
| 20260506143901 | 56 | 290 | 8.0 | 13.0 | 0.00 | 0.04 | 0.01 | 80 | 1004.4 |
| 20260506143404 | 56 | 256 | 7.0 | 13.0 | 0.00 | 0.04 | 0.01 | 82 | 1004.4 |
| 20260506142902 | 56 | 315 | 7.0 | 13.0 | 0.00 | 0.04 | 0.01 | 82 | 1004.4 |
| 20260506142356 | 56 | 265 | 7.0 | 13.0 | 0.00 | 0.04 | 0.01 | 83 | 1004.3 |
| 20260506142155 | 56 | 294 | 6.0 | 12.0 | 0.00 | 0.05 | 0.01 | 82 | 1004.2 |
| 20260506141344 | 56 | 251 | 6.0 | 11.0 | 0.00 | 0.05 | 0.01 | 83 | 1004.3 |
| 20260506140832 | 56 | 311 | 7.0 | 12.0 | 0.00 | 0.05 | 0.01 | 84 | 1004.3 |
| 20260506140331 | 55 | 239 | 6.0 | 12.0 | 0.00 | 0.05 | 0.01 | 84 | 1004.2 |
| 20260506135826 | 55 | 305 | 6.0 | 13.0 | 0.00 | 0.05 | 0.01 | 84 | 1004.2 |
| 20260506135319 | 55 | 276 | 6.0 | 13.0 | 0.00 | 0.05 | 0.01 | 84 | 1004.3 |
| 20260506134809 | 55 | 261 | 6.0 | 15.0 | 0.00 | 0.06 | 0.01 | 85 | 1004.2 |
| 20260506134304 | 55 | 263 | 7.0 | 15.0 | 0.00 | 0.06 | 0.01 | 84 | 1004.3 |
| 20260506133801 | 55 | 246 | 7.0 | 13.0 | 0.00 | 0.06 | 0.01 | 85 | 1004.3 |
| 20260506133301 | 56 | 243 | 7.0 | 16.0 | 0.00 | 0.06 | 0.01 | 84 | 1004.2 |
| 20260506132802 | 56 | 227 | 8.0 | 16.0 | 0.00 | 0.06 | 0.01 | 83 | 1004.2 |
| 20260506132305 | 56 | 294 | 8.0 | 16.0 | 0.00 | 0.06 | 0.01 | 81 | 1004.1 |
| 20260506131804 | 57 | 244 | 10.0 | 16.0 | 0.00 | 0.06 | 0.01 | 80 | 1004.1 |
| 20260506131302 | 57 | 252 | 7.0 | 15.0 | 0.00 | 0.06 | 0.01 | 80 | 1004.1 |
| 20260506131121 | 57 | 208 | 5.0 | 13.0 | 0.00 | 0.06 | 0.01 | 81 | 1004.0 |
| 20260506130301 | 56 | 232 | 5.0 | 10.0 | 0.00 | 0.06 | 0.01 | 83 | 1004.0 |
| 20260506125801 | 56 | 250 | 6.0 | 14.0 | 0.00 | 0.06 | 0.01 | 82 | 1004.0 |
| 20260506125301 | 58 | 252 | 8.0 | 14.0 | 0.00 | 0.06 | 0.01 | 79 | 1004.1 |
| 20260506124802 | 58 | 205 | 8.0 | 19.0 | 0.00 | 0.06 | 0.01 | 78 | 1004.1 |
| 20260506124301 | 59 | 209 | 7.0 | 19.0 | 0.00 | 0.07 | 0.01 | 75 | 1004.0 |
| 20260506123801 | 58 | 230 | 10.0 | 18.0 | 0.00 | 0.07 | 0.01 | 76 | 1004.0 |
| 20260506123304 | 59 | 205 | 8.0 | 18.0 | 0.00 | 0.07 | 0.01 | 75 | 1004.0 |
| 20260506122800 | 59 | 193 | 6.0 | 13.0 | 0.00 | 0.07 | 0.01 | 76 | 1003.9 |
| 20260506122306 | 59 | 172 | 6.0 | 12.0 | 0.00 | 0.08 | 0.01 | 76 | 1004.0 |
| 20260506121803 | 58 | 199 | 7.0 | 16.0 | 0.00 | 0.08 | 0.01 | 78 | 1004.0 |
| 20260506121301 | 57 | 180 | 8.0 | 16.0 | 0.00 | 0.08 | 0.01 | 78 | 1004.0 |
| 20260506120801 | 57 | 185 | 8.0 | 13.0 | 0.00 | 0.09 | 0.01 | 77 | 1004.0 |
| 20260506120302 | 57 | 188 | 7.0 | 13.0 | 0.00 | 0.09 | 0.01 | 77 | 1004.1 |
| 20260506115802 | 58 | 184 | 7.0 | 11.0 | 0.00 | 0.09 | 0.01 | 76 | 1004.1 |
| 20260506115306 | 58 | 184 | 7.0 | 12.0 | 0.00 | 0.09 | 0.01 | 76 | 1004.0 |
| 20260506114802 | 58 | 184 | 7.0 | 12.0 | 0.00 | 0.09 | 0.01 | 75 | 1004.0 |
| 20260506114300 | 58 | 192 | 7.0 | 14.0 | 0.00 | 0.09 | 0.01 | 76 | 1004.0 |
| 20260506113801 | 58 | 194 | 7.0 | 14.0 | 0.00 | 0.09 | 0.01 | 77 | 1004.0 |
| 20260506113301 | 57 | 184 | 6.0 | 13.0 | 0.00 | 0.10 | 0.01 | 79 | 1004.0 |
| 20260506112801 | 58 | 215 | 7.0 | 13.0 | 0.00 | 0.10 | 0.01 | 77 | 1004.0 |
| 20260506112301 | 57 | 212 | 8.0 | 13.0 | 0.00 | 0.10 | 0.01 | 77 | 1004.1 |
| 20260506111801 | 58 | 215 | 9.0 | 16.0 | 0.00 | 0.10 | 0.01 | 76 | 1004.0 |
| 20260506111310 | 59 | 196 | 9.0 | 16.0 | 0.00 | 0.10 | 0.01 | 75 | 1004.0 |
| 20260506110800 | 59 | 216 | 7.0 | 15.0 | 0.00 | 0.10 | 0.01 | 77 | 1004.0 |
| 20260506110620 | 58 | 178 | 6.0 | 12.0 | 0.00 | 0.10 | 0.01 | 77 | 1004.0 |
| 20260506105802 | 58 | 177 | 7.0 | 13.0 | 0.00 | 0.10 | 0.01 | 79 | 1003.9 |
| 20260506105305 | 58 | 217 | 8.0 | 13.0 | 0.00 | 0.10 | 0.01 | 77 | 1004.0 |
| 20260506104801 | 58 | 218 | 9.0 | 15.0 | 0.00 | 0.10 | 0.01 | 78 | 1004.0 |
| 20260506104300 | 58 | 199 | 8.0 | 15.0 | 0.00 | 0.10 | 0.01 | 78 | 1003.9 |
| 20260506103802 | 58 | 213 | 7.0 | 13.0 | 0.00 | 0.10 | 0.01 | 79 | 1003.9 |
| 20260506103302 | 57 | 248 | 5.0 | 11.0 | 0.00 | 0.10 | 0.01 | 80 | 1003.8 |
| 20260506102802 | 57 | 254 | 6.0 | 11.0 | 0.00 | 0.10 | 0.01 | 79 | 1003.9 |
| 20260506102305 | 57 | 208 | 6.0 | 11.0 | 0.00 | 0.10 | 0.01 | 81 | 1004.0 |
| 20260506101801 | 56 | 196 | 7.0 | 14.0 | 0.00 | 0.10 | 0.01 | 83 | 1004.0 |
| 20260506101611 | 55 | 250 | 7.0 | 14.0 | 0.00 | 0.10 | 0.01 | 82 | 1003.9 |
| 20260506100802 | 56 | 198 | 7.0 | 12.0 | 0.00 | 0.10 | 0.01 | 82 | 1003.9 |
| 20260506100302 | 56 | 236 | 8.0 | 13.0 | 0.00 | 0.10 | 0.01 | 82 | 1003.9 |
| 20260506095802 | 56 | 216 | 7.0 | 13.0 | 0.00 | 0.10 | 0.01 | 82 | 1003.9 |
| 20260506095305 | 56 | 213 | 6.0 | 11.0 | 0.00 | 0.10 | 0.01 | 85 | 1003.9 |
| 20260506094801 | 55 | 217 | 6.0 | 10.0 | 0.00 | 0.10 | 0.01 | 86 | 1004.0 |
| 20260506094301 | 55 | 238 | 8.0 | 14.0 | 0.00 | 0.10 | 0.01 | 87 | 1004.0 |
| 20260506093804 | 55 | 190 | 7.0 | 14.0 | 0.00 | 0.10 | 0.01 | 85 | 1004.0 |
| 20260506093302 | 55 | 185 | 6.0 | 12.0 | 0.00 | 0.10 | 0.01 | 86 | 1003.9 |
| 20260506092751 | 54 | 193 | 6.0 | 12.0 | 0.00 | 0.10 | 0.01 | 86 | 1003.9 |
| 20260506092249 | 54 | 232 | 5.0 | 12.0 | 0.00 | 0.10 | 0.01 | 86 | 1004.0 |
| 20260506092051 | 54 | 206 | 4.0 | 10.0 | 0.00 | 0.10 | 0.01 | 87 | 1003.9 |
| 20260506091232 | 54 | 200 | 5.0 | 10.0 | 0.00 | 0.10 | 0.01 | 86 | 1003.9 |
| 20260506090731 | 54 | 196 | 6.0 | 13.0 | 0.00 | 0.10 | 0.01 | 86 | 1003.9 |
| 20260506090222 | 54 | 183 | 6.0 | 13.0 | 0.00 | 0.10 | 0.01 | 86 | 1003.9 |
| 20260506085718 | 53 | 209 | 6.0 | 12.0 | 0.00 | 0.10 | 0.01 | 87 | 1003.9 |
| 20260506085214 | 53 | 229 | 6.0 | 12.0 | 0.00 | 0.10 | 0.01 | 86 | 1003.9 |
| 20260506084704 | 53 | 213 | 6.0 | 12.0 | 0.00 | 0.10 | 0.01 | 86 | 1003.8 |
| 20260506084503 | 53 | 183 | 6.0 | 12.0 | 0.00 | 0.10 | 0.01 | 87 | 1003.7 |
| 20260506083701 | 53 | 205 | 6.0 | 10.0 | 0.00 | 0.10 | 0.01 | 87 | 1003.7 |